N2UGS-WX Weather Reports


Display with metric or nautical units.
time (UTC)temp
F
wind
direction
speed
MPH
gust
MPH
rain 1hr
in
rain 24hr
in
rain mn
in
humidity
%
barometer
mb
20260902223402 80 213 6.0 8.0 0.00 0.00 0.02 83 1013.2
20260902222401 80 280 6.0 12.0 0.00 0.00 0.02 82 1012.9
20260902220903 81 253 3.0 10.0 0.00 0.00 0.02 80 1012.5
20260902215403 83 283 9.0 9.0 0.00 0.00 0.02 77 1012.2
20260902213901 84 249 1.0 8.0 0.00 0.00 0.02 76 1011.9
20260902212502 85 205 3.0 9.0 0.00 0.00 0.02 74 1012.9
20260902211402 85 336 3.0 7.0 0.00 0.00 0.02 75 1012.9
20260902205902 83 320 1.0 4.0 0.00 0.00 0.02 80 1013.2
20260902204503 82 251 5.0 6.0 0.00 0.00 0.02 80 1013.5
20260902203002 82 292 1.0 4.0 0.00 0.00 0.02 80 1013.9
20260902201502 82 256 4.0 8.0 0.00 0.00 0.02 78 1014.2
20260902200002 82 308 5.0 14.0 0.00 0.00 0.02 77 1014.6
20260902195001 82 257 3.0 12.0 0.00 0.00 0.02 76 1014.9
20260902193502 85 251 6.0 10.0 0.00 0.00 0.02 70 1014.9
20260902192002 86 264 11.0 12.0 0.00 0.00 0.02 69 1014.9
20260902190502 86 154 3.0 8.0 0.00 0.00 0.02 67 1014.9
20260902185002 86 355 8.0 11.0 0.00 0.00 0.02 65 1014.9
20260902183903 86 242 7.0 9.0 0.00 0.00 0.02 64 1014.9
20260902182502 86 198 4.0 11.0 0.00 0.00 0.02 66 1014.9
20260902181402 86 247 4.0 13.0 0.00 0.00 0.02 69 1014.9
20260902180005 84 305 6.0 9.0 0.00 0.00 0.02 72 1014.9
20260902174502 82 259 6.0 8.0 0.00 0.00 0.02 78 1015.2
20260902173003 78 180 1.0 8.0 0.02 0.00 0.02 86 1015.6
20260902171503 76 265 4.0 4.0 0.02 0.00 0.02 89 1015.9
20260902170502 76 310 0.0 4.0 0.02 0.00 0.02 87 1016.3
20260902165402 77 84 2.0 2.0 0.02 0.00 0.02 85 1016.6
20260902164001 79 251 2.0 3.0 0.00 0.00 0.00 78 1015.6
20260902162502 79 131 4.0 8.0 0.00 0.00 0.00 77 1015.2
20260902161402 80 254 3.0 9.0 0.00 0.00 0.00 76 1015.6
20260902160001 82 342 4.0 9.0 0.00 0.00 0.00 72 1015.9
20260902154502 83 205 4.0 8.0 0.00 0.00 0.00 71 1015.9
20260902153402 82 251 2.0 8.0 0.00 0.00 0.00 72 1015.9
20260902151901 82 302 10.0 10.0 0.00 0.00 0.00 73 1015.9
20260902150502 81 292 4.0 10.0 0.00 0.00 0.00 74 1016.3
20260902145002 80 157 2.0 10.0 0.00 0.00 0.00 80 1016.6
20260902143502 78 42 2.0 8.0 0.00 0.00 0.00 83 1016.6
20260902142002 76 200 1.0 3.0 0.00 0.00 0.00 88 1016.6
20260902140503 73 68 0.0 3.0 0.00 0.00 0.00 89 1016.9
20260902135502 72 188 1.0 3.0 0.00 0.00 0.00 89 1016.6
20260902134002 72 196 1.0 7.0 0.00 0.00 0.00 89 1016.6
20260902132502 72 212 3.0 5.0 0.00 0.00 0.00 90 1016.3
20260902131501 72 200 3.0 3.0 0.00 0.00 0.00 91 1016.6
20260902130003 71 271 0.0 3.0 0.00 0.00 0.00 91 1017.3
20260902124503 71 128 0.0 4.0 0.00 0.00 0.00 90 1017.3
20260902123003 72 71 5.0 10.0 0.00 0.00 0.00 88 1017.6
20260902121502 75 5 4.0 5.0 0.00 0.00 0.00 89 1016.3
20260902120003 74 308 6.0 10.0 0.00 0.00 0.00 92 1015.2
20260902115001 73 300 0.0 6.0 0.00 0.00 0.00 93 1014.9
20260902113503 73 173 2.0 7.0 0.00 0.00 0.00 95 1014.9
20260902112501 72 232 5.0 7.0 0.00 0.00 0.00 95 1014.9
20260902111002 72 211 3.0 5.0 0.00 0.00 0.00 97 1014.6
20260902105502 72 278 0.0 6.0 0.00 0.00 0.00 97 1013.9
20260902104001 72 218 0.0 5.0 0.00 0.00 0.00 98 1013.9
20260902102502 71 185 4.0 5.0 0.00 0.00 0.00 99 1014.6
20260902101002 71 20 0.0 3.0 0.00 0.00 0.00 99 1014.2
20260902095502 71 197 0.0 2.0 0.00 0.00 0.00 99 1014.2
20260902094002 72 306 0.0 0.0 0.00 0.00 0.00 99 1014.6
20260902092902 71 234 0.0 1.0 0.00 0.00 0.00 99 1014.6
20260902091501 72 142 0.0 3.0 0.00 0.00 0.00 99 1014.9
20260902090003 71 174 0.0 4.0 0.00 0.00 0.00 99 1014.9
20260902085001 71 276 0.0 4.0 0.00 0.00 0.00 99 1014.9
20260902083502 71 275 0.0 0.0 0.00 0.00 0.00 99 1015.2
20260902082002 70 97 0.0 0.0 0.00 0.00 0.00 99 1015.6
20260902081002 70 309 0.0 0.0 0.00 0.00 0.00 99 1015.6
20260902075502 70 312 0.0 0.0 0.00 0.00 0.00 99 1015.6
20260902074003 70 311 0.0 0.0 0.00 0.00 0.00 99 1015.6
20260902073001 70 327 0.0 0.0 0.00 0.00 0.00 99 1015.6
20260902071501 70 19 0.0 0.0 0.00 0.00 0.00 99 1015.9
20260902070002 70 170 0.0 0.0 0.00 0.00 0.00 98 1015.9
20260902064502 70 222 0.0 0.0 0.00 0.00 0.00 98 1015.9
20260902063003 70 131 0.0 0.0 0.00 0.00 0.00 98 1015.9
20260902062002 70 136 0.0 0.0 0.00 0.00 0.00 98 1015.9
20260902060503 70 94 0.0 0.0 0.00 0.00 0.00 98 1015.9
20260902055502 70 139 0.0 0.0 0.00 0.00 0.00 98 1015.9
20260902054002 70 89 0.0 0.0 0.00 0.00 0.00 97 1015.9
20260902052502 70 292 0.0 0.0 0.00 0.00 0.00 97 1015.9
20260902051001 71 230 0.0 0.0 0.00 0.00 0.00 97 1015.9
20260902045503 71 8 0.0 0.0 0.00 0.00 0.00 97 1015.9
20260902044001 71 297 0.0 0.0 0.00 0.00 0.00 96 1015.9
20260902042501 71 254 0.0 0.0 0.00 0.00 0.00 96 1015.9
20260902041402 71 302 0.0 0.0 0.00 0.00 0.00 96 1015.9
20260902040002 72 267 0.0 0.0 0.00 0.00 0.00 95 1015.6
20260902035502 72 7 0.0 0.0 0.00 0.00 0.01 95 1015.6
20260902034402 72 2 0.0 0.0 0.00 0.00 0.01 95 1015.6
20260902033003 72 34 0.0 0.0 0.00 0.00 0.01 95 1015.6
20260902031902 73 44 0.0 0.0 0.00 0.00 0.01 95 1015.6
20260902030502 73 284 0.0 0.0 0.00 0.00 0.01 94 1015.6
20260902024902 73 271 0.0 0.0 0.00 0.00 0.01 94 1015.6
20260902023503 74 318 0.0 0.0 0.00 0.00 0.01 94 1015.6
20260902022002 74 294 0.0 0.0 0.00 0.00 0.01 94 1015.6
20260902021002 74 296 0.0 0.0 0.00 0.00 0.01 94 1015.6
20260902015502 74 283 0.0 0.0 0.00 0.00 0.01 93 1015.6
20260902014002 75 181 0.0 0.0 0.00 0.00 0.01 93 1015.6
20260902012502 75 255 0.0 3.0 0.00 0.00 0.01 92 1015.6
20260902011001 75 261 0.0 4.0 0.00 0.00 0.01 91 1015.6
20260902005503 76 108 0.0 2.0 0.00 0.00 0.01 90 1015.2
20260902004001 76 289 0.0 1.0 0.00 0.00 0.01 88 1015.2
20260902002502 77 268 0.0 3.0 0.00 0.00 0.01 86 1014.9
20260902001001 78 302 1.0 2.0 0.00 0.00 0.01 84 1014.9
20260901235502 79 289 0.0 0.0 0.00 0.00 0.01 83 1014.6
20260901234003 80 282 0.0 2.0 0.00 0.00 0.01 81 1014.6
20260901232502 81 175 1.0 3.0 0.00 0.00 0.01 79 1014.9
20260901231001 81 245 2.0 4.0 0.00 0.00 0.01 78 1014.9
20260901225501 83 265 2.0 2.0 0.00 0.00 0.01 74 1015.2